Location: Fort-Louis
(48.8007°N, 8.0562°E)
Time: 15:13:46
(UTC+00:00)

Daily predictions for brighter satellites

Satellite Brightness Start Highest point End
(mag) Time Altitude Azimuth Time Altitude Azimuth Time Altitude Azimuth
BREEZE-M DEB (TANK) 3.9 19:06:44 10° SW 19:10:55 70° SE 19:26:48 10° ENE
Cosmos 1954 Rocket 4.2 19:18:12 10° NNW 19:23:24 74° WSW 19:28:31 10° SSE
Cosmos 1697 Rocket 2.8 19:17:59 10° NNW 19:23:36 65° ENE 19:29:09 10° SE
Okean O Rocket 2.6 19:21:15 10° SE 19:24:59 30° ENE 19:28:44 10° N
ATLAS 3B R/B 3.1 19:17:41 10° NW 19:25:32 70° NE 19:32:56 10° SE
SL-16 R/B 4.4 19:23:31 10° N 19:26:29 14° NNE 19:29:26 10° ENE
ERS-1 Rocket 3.0 19:21:53 10° SSE 19:26:52 73° ENE 19:31:53 10° N
Cosmos 1867 3.6 19:23:57 10° SSW 19:29:21 75° SE 19:34:50 10° NE
Cosmos 332 Rocket 3.8 19:25:11 10° NNW 19:30:01 89° WSW 19:34:45 10° SSE
Helios 1A Rocket 2.4 19:26:54 10° NNE 19:30:01 51° ESE 19:33:05 10° S
USA 186 3.2 19:28:46 10° ESE 19:30:37 17° ENE 19:32:31 10° NNE
Meteor 1-31 Rocket 3.1 19:29:37 10° S 19:33:03 58° W 19:36:31 10° NNW
MOS 1 4.4 19:31:58 10° SSE 19:37:39 90° ENE 19:43:23 10° NNW
Okean-O 3.3 19:33:41 10° SE 19:37:43 38° ENE 19:41:47 10° N
Cosmos 968 Rocket 3.6 19:33:06 10° NNW 19:38:22 71° ENE 19:43:35 10° SSE
Cosmos 676 Rocket 4.2 19:33:38 10° NNW 19:38:51 75° WSW 19:44:01 10° SSE
Cosmos 2333 Rocket 4.4 19:36:03 10° N 19:39:19 15° NNE 19:42:35 10° ENE
Cosmos 1892 Rocket 4.5 19:38:44 10° N 19:42:38 31° ENE 19:46:26 10° SE
Meteor 2-1 Rocket 4.3 19:38:02 10° S 19:43:38 59° E 19:49:07 10° NNE
Cosmos 2173 Rocket 4.1 19:38:43 10° S 19:44:42 59° E 19:50:47 10° NNE
Cosmos 1455 Rocket 4.0 19:43:41 10° SSE 19:47:31 30° E 19:51:22 10° NNE
Cosmos 1980 Rocket 2.6 19:46:04 10° NNW 19:51:40 52° NE 19:56:48 12° SE
SL-08 R/B 3.5 19:47:03 10° NNE 19:51:51 56° E 19:56:32 10° S
Okean 1 Rocket 3.1 19:49:07 10° S 19:53:26 65° E 19:57:50 10° NNE
Meteor 2-3 Rocket 3.8 19:51:33 10° NNW 19:57:12 88° WSW 20:02:51 10° S
Cosmos 2084 4.3 19:53:33 10° WSW 19:57:36 51° NW 20:01:40 10° NE
SPOT 3 Rocket 4.3 19:53:56 12° SE 19:58:18 36° ENE 20:02:59 10° N
CZ-4 R/B 2.8 19:56:07 10° SSW 19:59:23 31° W 20:02:40 10° NNW
CZ-4B R/B 3.8 19:58:30 13° ESE 20:00:40 24° ENE 20:03:29 10° N
Cosmos 1782 3.6 19:59:06 14° SE 20:01:23 26° E 20:04:21 10° NNE
Cosmos 1850 Rocket 4.0 19:56:29 10° NNW 20:01:40 71° ENE 20:06:17 13° SSE
ASTEX 1 4.4 20:00:59 10° SSW 20:05:44 47° W 20:10:33 10° NNW
CZ-4B R/B 3.7 20:03:38 10° S 20:09:15 63° WSW 20:14:52 10° NNW
Cosmos 1833 Rocket 3.1 20:05:01 10° SW 20:10:36 69° WNW 20:16:14 10° NNE
Cosmos 1110 Rocket 4.0 20:05:38 10° SSW 20:10:54 75° ESE 20:16:13 10° NNE
Cosmos 1802 Rocket 4.0 20:05:03 10° S 20:11:10 65° E 20:17:16 10° NNE
Terra 2.6 20:08:58 10° S 20:13:30 49° W 20:18:05 10° NNW
Gbstr 26 Del rocket 3.1 20:10:19 10° WNW 20:15:31 87° SSW 20:18:53 17° ESE
Sich 1 Rocket 3.6 20:11:56 10° S 20:16:17 84° W 20:20:41 10° N
Cosmos 2360 Rocket 4.3 20:13:27 10° N 20:16:57 16° NE 20:20:26 10° ENE
SJ 16-02 4.3 20:19:27 10° W 20:20:16 10° W 20:21:04 10° WSW
YAOGAN 11 4.1 20:17:05 10° NNE 20:21:29 72° ESE 20:25:55 10° S
CZ-2C R/B 3.5 20:23:39 19° E 20:24:28 22° ENE 20:26:43 10° NNE
Cosmos 1743 1.9 20:23:49 10° N 20:26:50 85° E 20:28:34 23° SSE
Meteor 1-27 4.2 20:25:04 10° S 20:30:43 72° E 20:36:20 10° NNE
Cosmos 44 Rocket 3.3 20:26:14 10° SSW 20:31:15 70° SE 20:36:25 10° NE
Cosmos 1459 Rocket 4.3 20:26:01 10° SSW 20:32:14 70° W 20:38:25 10° N
ISS -3.3 20:29:21 10° SW 20:32:27 36° SSE 20:35:05 13° E
Cosmos 2219 Rocket 4.5 20:31:16 10° N 20:34:25 15° NNE 20:37:32 10° ENE
Ariane Rocket 3.2 20:32:21 20° SE 20:35:41 57° ENE 20:40:39 10° N
Meteor 2-12 Rocket 4.4 20:30:01 10° N 20:36:07 77° E 20:40:49 18° SSE
ATLAS 2AS CENTAUR R/B 3.8 20:33:37 10° WSW 20:40:17 48° NW 20:46:52 10° NE
Spot 2 Rocket 4.1 20:36:58 11° S 20:41:43 52° W 20:46:39 10° NNW
Cosmos 2369 3.9 20:37:05 10° NNW 20:42:47 66° ENE 20:46:24 23° SE
BREEZE-M DEB (TANK) 4.0 20:39:47 10° W 20:42:55 42° SSW 20:47:10 21° SE
SL-4 R/B 3.5 20:40:10 10° W 20:43:14 23° SW 20:44:44 18° S
Cosmos 2322 Rocket 3.9 20:40:29 10° N 20:44:56 23° NE 20:49:16 10° E
Cosmos 2082 Rocket 2.3 20:41:05 10° S 20:46:38 54° ESE 20:52:11 10° NE
Cosmos 1437 Rocket 4.0 20:47:59 20° E 20:48:02 20° E 20:50:43 10° NE
USA 305 2.8 20:45:11 10° WNW 20:49:15 63° NNE 20:51:07 26° E
Cosmos 909 Rocket 4.3 20:43:22 10° S 20:49:25 47° ESE 20:55:29 10° NE
Cosmos 2151 3.7 20:47:34 10° N 20:51:25 36° ENE 20:52:53 27° ESE
USA 234 4.2 20:50:09 10° ENE 20:55:08 23° SE 20:55:31 22° SE
Cosmos 2233 Rocket 4.0 20:51:19 11° S 20:57:18 89° E 21:03:31 10° N
Cosmos 1607 3.9 20:51:38 10° SSW 20:57:42 67° ESE 21:03:54 10° NE
Cosmos 1626 Rocket 3.6 20:53:55 10° N 20:58:13 60° ENE 21:00:05 32° SE
Cosmos 2228 2.9 20:55:36 18° SSW 20:58:36 81° W 21:02:44 10° N
USA 186 3.6 20:58:27 13° SW 20:59:53 20° W 21:01:57 10° NW
Okean O Rocket 3.0 20:57:28 11° SSW 21:01:07 32° W 21:04:59 10° NNW
Tsikada Rocket 4.1 20:58:15 10° NNW 21:04:26 75° W 21:08:51 20° S
CZ-4C R/B 2.3 21:04:25 10° SW 21:08:39 61° NW 21:14:09 10° NE
Cosmos 1992 Rocket 4.1 21:05:58 26° S 21:08:47 55° ESE 21:13:52 10° NNE
Cosmos 1452 Rocket 4.1 21:04:11 10° SW 21:09:19 57° WNW 21:14:30 10° NNE
COSMOS 2406 3.7 21:07:29 28° SSE 21:09:47 41° ESE 21:15:07 10° NE
Meteor 1-20 Rocket 4.2 21:05:36 10° N 21:11:08 68° ENE 21:13:52 31° SSE
SL-16 R/B 2.7 21:06:29 10° NNW 21:12:00 50° NE 21:14:58 26° ESE
Helios 1A 4.1 21:09:52 10° NE 21:13:01 25° E 21:13:01 25° E
Okean-O 4.4 21:10:27 10° SSW 21:14:06 25° W 21:17:46 10° NW
ATLAS 3B R/B 4.0 21:09:02 10° NW 21:15:51 35° WSW 21:20:47 16° SSW
Cosmos 1805 4.0 21:15:06 10° NNE 21:18:00 28° ENE 21:18:02 28° ENE
CZ-4B R/B 3.8 21:19:07 25° SSW 21:21:39 53° W 21:26:21 10° NNW
Cosmos 2333 Rocket 2.6 21:19:20 10° NNW 21:24:56 55° NE 21:27:39 29° ESE
Cosmos 2098 Rocket 3.8 21:25:32 36° SE 21:26:54 44° E 21:31:21 10° NNE
Cosmos 1302 Rocket 4.3 21:21:52 10° SW 21:26:59 64° WNW 21:32:09 10° NNE
Meteor 1-25 Rocket 4.2 21:24:27 10° N 21:30:10 73° ENE 21:32:32 36° SSE
CZ-4B R/B 4.3 21:33:11 19° SW 21:34:23 23° W 21:37:09 10° NW
Cosmos 2061 Rocket 4.5 21:29:50 13° SSW 21:35:21 59° WNW 21:41:34 10° N
Cosmos 1980 Rocket 3.6 21:30:30 10° NW 21:35:23 30° WSW 21:38:33 18° SSW
Cosmos 1544 Rocket 3.6 21:35:33 35° SSW 21:37:18 76° W 21:41:40 10° N
NOSS 3-3 (A) 3.6 21:34:27 12° SW 21:39:19 82° SE 21:45:33 10° NE
Cosmos 1933 3.1 21:44:19 58° SSW 21:45:00 80° W 21:48:49 10° N
Okean 1 4.1 21:49:59 32° ENE 21:49:59 32° ENE 21:52:42 10° NNE
Cosmos 2084 Rocket 3.9 21:45:50 10° NW 21:49:52 45° SW 21:50:19 43° SW
Helios 1B rocket 2.4 21:51:52 50° ENE 21:51:52 50° ENE 21:55:16 10° N
Cosmos 1758 Rocket 4.4 21:48:05 10° NNW 21:52:13 42° W 21:53:42 31° SW
CZ-2C R/B 4.3 21:55:17 17° W 21:55:17 17° W 21:57:12 10° NW
Cosmos 1464 Rocket 3.9 21:53:23 38° S 21:55:52 75° E 22:02:02 10° NNE
Gbstr 26 Del rocket 4.5 21:57:36 10° W 22:00:52 23° SW 22:00:52 23° SW
Cosmos 2360 Rocket 2.5 21:56:31 10° NNW 22:02:10 61° ENE 22:04:14 38° ESE
Meteor 2-10 4.2 21:59:21 10° NNW 22:05:06 88° ENE 22:06:57 46° SSE
NOSS 3-3 (C) 3.8 22:02:52 15° SW 22:07:16 81° NW 22:13:39 10° NE
ALOS 2 3.6 22:06:32 32° E 22:07:21 35° ENE 22:11:21 10° N
ARIANE 5 R/B 3.3 22:07:11 39° E 22:07:57 42° ENE 22:12:09 10° N
Cosmos 1825 Rocket 3.3 22:04:19 10° N 22:08:41 85° E 22:09:11 69° SSE
Geosat 4.4 22:04:00 10° NNE 22:08:57 62° NW 22:12:24 20° SW
ISS -2.8 22:05:49 10° W 22:08:14 42° WNW 22:08:14 42° WNW
Cosmos 1953 Rocket 3.8 22:06:03 10° N 22:10:21 53° ENE 22:10:47 50° E
Cosmos 2058 Rocket 4.1 22:11:46 31° E 22:11:46 31° E 22:15:29 10° NNE
USA 305 4.1 22:10:56 10° WNW 22:13:09 25° W 22:13:09 25° W
BREEZE-M R/B 4.3 22:08:10 10° W 22:16:35 79° N 22:22:17 10° E
Cosmos 1602 Rocket 4.4 22:13:51 10° NNW 22:17:51 39° W 22:18:42 35° WSW
Cosmos 1092 Rocket 4.2 22:12:45 10° N 22:18:52 60° ENE 22:20:51 41° SE
Cosmos 2219 Rocket 2.7 22:14:09 10° NNW 22:19:42 54° NE 22:21:48 35° ESE
DEBRIS 4.4 22:15:33 10° W 22:19:49 86° N 22:36:53 10° E
CZ-2C R/B 3.9 22:15:41 10° NNE 22:20:00 51° E 22:20:05 51° ESE
NOSS 3-4 (A) 3.8 22:15:43 10° NW 22:22:25 85° NE 22:26:00 35° SE
Cosmos 1437 Rocket 4.1 22:21:47 26° W 22:22:33 29° WNW 22:25:42 10° N
NOSS 3-4 (C) 3.8 22:16:20 10° NW 22:23:02 85° NE 22:26:40 35° SE
Cosmos 540 Rocket 3.9 22:23:21 41° ESE 22:23:33 41° ESE 22:28:22 10° NE
Cosmos 1461 3.2 22:26:32 48° NE 22:26:32 48° NE 22:29:18 10° NE
Cosmos 2322 Rocket 2.1 22:23:58 10° NNW 22:29:40 83° WSW 22:31:03 53° SSE
Cosmos 2034 Rocket 4.0 22:27:37 43° S 22:29:54 88° E 22:36:18 10° N
Cosmos 2082 Rocket 3.8 22:25:53 10° WSW 22:30:58 32° NW 22:36:06 10° NNE
Cosmos 220 Rocket 4.0 22:32:36 61° W 22:32:58 65° WNW 22:37:03 10° NNE
Cosmos 1707 4.2 22:38:21 23° NNE 22:38:21 23° NNE 22:39:37 10° NNE
Cosmos 1536 3.2 22:34:56 10° N 22:38:06 48° NE 22:38:06 48° NE
USA 234 3.1 22:32:20 10° ENE 22:38:54 71° SE 22:42:48 26° SW
ACS3 Solar Sail 3.8 22:39:38 10° NE 22:42:10 13° E 22:44:07 11° E
COSMOS 2428 4.1 22:37:58 10° NNW 22:43:04 32° NE 22:46:33 18° E
Cosmos 2237 Rocket 4.5 22:42:07 10° N 22:46:08 19° NE 22:50:08 10° E
Cosmos 1763 Rocket 3.4 22:45:39 61° SSE 22:46:24 72° ESE 22:51:42 10° NNE
Cosmos-2242 2.8 22:47:28 80° ENE 22:47:28 80° ENE 22:51:29 10° NNE
Helios 1A 4.2 22:44:19 10° N 22:47:50 32° WNW 22:48:44 28° W
Cosmos 1503 Rocket 3.9 22:43:08 10° NNW 22:48:19 68° WSW 22:49:02 59° SSW
Cosmos 1777 Rocket 4.3 22:43:27 10° NNW 22:48:33 53° WSW 22:49:16 49° SW
Cosmos 2278 4.2 22:43:13 10° NW 22:48:37 45° WSW 22:49:38 41° SW
CZ-2C R/B 3.9 22:45:41 10° NNE 22:51:01 40° E 22:51:56 37° ESE
Cosmos 990 Rocket 3.8 22:46:31 10° NNW 22:51:43 88° WSW 22:52:30 65° SSE
COSMOS 2406 4.4 22:49:27 14° WSW 22:54:04 41° NW 22:59:30 10° NNE
ARGOS Delta rocket 3.9 22:50:24 10° NNE 22:55:25 72° E 22:56:07 62° SSE
USA 290 3.7 22:56:48 35° NNE 22:56:48 35° NNE 22:58:47 10° NNE
SL-16 R/B 3.2 22:50:56 10° NW 22:55:52 31° WSW 22:56:47 30° WSW
Cosmos 1354 Rocket 3.9 22:53:18 10° NNW 22:58:35 80° WSW 22:59:19 65° S
Cosmos 1634 Rocket 3.9 22:57:50 51° S 22:59:31 85° E 23:05:44 10° N
Cosmos 1766 4.2 22:59:09 10° NNW 23:01:17 36° NW 23:01:17 36° NW
Cosmos 2279 Rocket 4.1 23:01:48 49° SSE 23:03:23 66° E 23:09:36 10° NNE
Cosmos 1470 3.6 23:01:51 10° N 23:04:12 37° NNE 23:04:12 37° NNE
SeaSat 1 3.1 23:03:53 34° ESE 23:05:34 49° NE 23:10:17 10° NNW
Cosmos 1726 Rocket 4.5 23:06:20 33° W 23:06:47 34° WNW 23:10:31 10° N
Meteor 2-6 Rocket 4.3 23:06:35 53° SSE 23:07:54 71° E 23:13:51 10° NNE
Cosmos 2333 Rocket 3.4 23:04:07 10° NW 23:08:54 28° WSW 23:09:39 28° WSW
Cosmos 2221 3.2 23:09:57 41° E 23:09:57 41° E 23:13:35 10° NNE
Meteor 2-2 Rocket 4.2 23:10:21 53° SSW 23:11:43 76° WNW 23:17:28 10° N
Cosmos 1842 4.3 23:13:51 34° NNE 23:13:51 34° NNE 23:15:48 10° NNE
Cosmos 841 Rocket 4.5 23:12:28 32° ESE 23:12:39 32° ESE 23:17:14 10° NE
CZ-2C R/B 2.8 23:16:22 47° SE 23:17:40 62° ENE 23:22:51 10° N
BREEZE-M DEB (TANK) 3.4 23:10:46 10° W 23:18:08 79° S 23:23:13 10° ESE
Cosmos 1833 4.2 23:17:41 50° SW 23:19:13 79° WNW 23:24:54 10° NNE
Cosmos 1975 3.1 23:25:12 10° N 23:28:17 58° NNE 23:28:17 58° NNE
Aureole 1 Rocket 3.8 23:25:23 10° NNW 23:30:44 72° WSW 23:32:03 55° S
Cosmos 2266 Rocket 4.0 23:26:39 10° N 23:32:41 68° ENE 23:34:28 46° SE
Cosmos 2322 3.8 23:27:45 10° NNW 23:33:29 72° ENE 23:35:16 44° SE
Cosmos 1812 Rocket 3.7 23:34:01 59° E 23:34:01 59° E 23:38:21 10° NNE
Cosmos 2297 Rocket 3.6 23:33:58 23° ESE 23:34:40 24° ESE 23:39:04 10° NE
Cosmos 44 3.4 23:31:33 10° NW 23:37:00 87° NE 23:38:08 57° SE
Cosmos 1271 Rocket 3.3 23:38:07 47° N 23:38:07 47° N 23:40:41 10° N
Cosmos 372 Rocket 3.8 23:37:57 10° NNW 23:43:05 72° WSW 23:43:34 67° SSW
ALOS 2 3.9 23:43:55 28° W 23:43:55 28° W 23:47:32 10° NW
RESURS DK-1 2.7 23:40:07 10° NNW 23:44:02 55° NE 23:44:13 54° ENE
Cosmos 1937 Rocket 3.6 23:39:16 10° NNW 23:44:25 67° ENE 23:45:41 48° SE
ARIANE 5 R/B 4.2 23:44:33 23° W 23:44:33 23° W 23:48:00 10° NW
Cosmos 2360 Rocket 3.5 23:41:11 10° NW 23:45:42 25° WSW 23:45:57 25° WSW
ISS-0.223:50:53E23:50:53E23:41:23WNW
Meteor 1-11 Rocket 3.7 23:42:24 10° N 23:48:10 82° ENE 23:49:32 54° SSE
GP-B 2.9 23:44:46 10° N 23:49:09 80° W 23:49:14 79° WSW
Cosmos 2058 Rocket 4.4 23:48:53 28° W 23:49:29 29° WNW 23:53:17 10° N
Cosmos 468 Rocket 4.2 23:51:08 51° WSW 23:52:19 66° WNW 23:57:35 10° NNE
Meteor 1-10 Rocket 4.3 23:52:26 54° S 23:53:51 80° E 23:59:48 10° NNE
